Location: Passau
(48.5830°N, 13.4830°E)
Time: 01:39:53
(UTC+01:00)

NOAA 19 - Pass Details

Date: 01 December 2021
Orbit: 841 x 860 km, 99.2° (Epoch: 17 January)

Event Time Altitude Azimuth Distance (km) Brightness Sun altitude
Rises 06:57:46 0° 23° (NNE) 3,427 8.3 -6.5°
Reaches altitude 10° 07:00:26 10° 34° (NE) 2,489 7.8 -6.1°
Maximum altitude 07:05:17 31° 95° (E) 1,472 7.4 -5.4°
Drops below altitude 10° 07:10:06 10° 156° (SSE) 2,484 8.5 -4.7°
Sets 07:12:45 0° 167° (SSE) 3,418 9.0 -4.3°
